This is the latest recevied weather packets stored in our database for station/object KD2RHT-13. If no packets are shown the sender has not sent any weather packets the latest 10 day(s).
| Time | Temp. | Humidity | Pressure | Rain* | Wind** | Luminosity | Snow |
|---|---|---|---|---|---|---|---|
| 1777919580 | 23.33° C | 48% | 1007 hPa | 0 mm | - | 653 W/m² | - |
| 1777919278 | 22.78° C | 49% | 1007 hPa | 0 mm | - | 655 W/m² | - |
| 1777918975 | 22.78° C | 49% | 1007.3 hPa | 0 mm | - | 349 W/m² | - |
| 1777918673 | 21.67° C | 51% | 1007.3 hPa | 0 mm | - | 661 W/m² | - |
| 1777918370 | 22.22° C | 50% | 1007.3 hPa | 0 mm | - | 649 W/m² | - |
| 1777918069 | 22.22° C | 53% | 1007.3 hPa | 0 mm | - | 677 W/m² | - |
| 1777917767 | 22.22° C | 49% | 1007.3 hPa | 0 mm | - | 661 W/m² | - |
| 1777917464 | 21.67° C | 49% | 1007.3 hPa | 0 mm | - | 646 W/m² | - |
| 1777917161 | 21.67° C | 50% | 1007.3 hPa | 0 mm | - | 651 W/m² | - |
| 1777916859 | 21.67° C | 51% | 1007.3 hPa | 0 mm | - | 637 W/m² | - |
| 1777916557 | 22.78° C | 49% | 1007.7 hPa | 0 mm | - | 683 W/m² | - |
| 1777916253 | 21.67° C | 52% | 1007.7 hPa | 0 mm | - | 690 W/m² | - |
| 1777915950 | 21.11° C | 54% | 1007.3 hPa | 0 mm | - | 648 W/m² | - |
| 1777915647 | 20.56° C | 53% | 1007.3 hPa | 0 mm | - | 692 W/m² | - |
| 1777915343 | 21.11° C | 50% | 1007.7 hPa | 0 mm | - | 641 W/m² | - |
| 1777915040 | 21.11° C | 51% | 1007.7 hPa | 0 mm | - | 661 W/m² | - |
| 1777914737 | 21.11° C | 54% | 1007.7 hPa | 0 mm | - | 728 W/m² | - |
| 1777914433 | 20.56° C | 50% | 1007.7 hPa | 0 mm | - | 705 W/m² | - |
| 1777914131 | 21.11° C | 55% | 1007.7 hPa | 0 mm | - | 699 W/m² | - |
| 1777913827 | 20.56° C | 51% | 1007.7 hPa | 0 mm | - | 704 W/m² | - |
| 1777913523 | 20° C | 53% | 1008 hPa | 0 mm | - | 723 W/m² | - |
| 1777913220 | 21.11° C | 50% | 1008 hPa | 0 mm | - | 722 W/m² | - |
| 1777912916 | 20.56° C | 57% | 1008 hPa | 0 mm | - | 707 W/m² | - |
| 1777912613 | 20.56° C | 55% | 1008 hPa | 0 mm | - | 716 W/m² | - |
| 1777912309 | 20° C | 51% | 1008 hPa | 0 mm | - | 729 W/m² | - |
* Rain latest hour (hover to see other rain measurements)
** Current wind speed in m/s (hover to see current wind gust speed)